Regional Weather Roundup
Issued by NWS Green Bay, WI

Home | Current Version | Previous Version | Text Only | Print | Product List | Glossary On
Versions: 1 2 3 4 5 6 7 8 9 10 11 12 13 14 15 16 17 18 19 20 21 22 23 24 25 26 27 28 29 30 31 32 33 34 35 36 37 38 39 40 41 42 43 44 45 46 47 48 49 50
616
ASUS43 KGRB 090711
RWRGRB

NORTH-CENTRAL AND NORTHEAST WISCONSIN REGIONAL WEATHER ROUNDUP
NATIONAL WEATHER SERVICE GREEN BAY WI
100 AM CST TUE FEB 09 2016

WIZ005-009-010>012-018-019-090800-
NORTH CENTRAL WISCONSIN

CITY           SKY/WX    TMP DP  RH WIND       PRES   REMARKS
IRONWOOD       CLOUDY    12   9  85 N10G16    29.80S WCI  -1
MANITOWISH WTR LGT SNOW  10   7  85 N9        29.75S WCI  -2
ARBOR VITAE    LGT SNOW  11   8  85 NW7       29.74S WCI   1
EAGLE RIVER    LGT SNOW  10   4  78 N8        29.72S WCI  -2
LAND O LAKES   LGT SNOW  11   7  83 N14       29.73S WCI  -5
RHINELANDER    LGT SNOW   8   4  83 NW7       29.73S FOG     WCI  -3
PHILLIPS       LGT SNOW   7   2  81 NW8       29.79F WCI  -6
ANTIGO         FLURRIES   9   5  84 NW9       29.72S WCI  -5
TOMAHAWK       FLURRIES   7   2  82 NW7       29.77S WCI  -5
MERRILL        FLURRIES   9   4  77 NW8       29.78S WCI  -3
$$

WIZ013-073-090800-
NORTHEAST WISCONSIN

CITY           SKY/WX    TMP DP  RH WIND       PRES   REMARKS
IRON MOUNTAIN  PTCLDY    13   5  70 N10       29.70F WCI   0
MARINETTE      CLOUDY    16   7  67 N10       29.73F WCI   3
OCONTO         CLOUDY    16   8  68 N8        29.75F WCI   6
$$

WIZ017-030-035>037-045-090800-
CENTRAL WISCONSIN

CITY           SKY/WX    TMP DP  RH WIND       PRES   REMARKS
MEDFORD        PTCLDY     7   2  82 NW13      29.78F WCI  -9
WAUSAU         CLOUDY    11   4  73 NW10      29.76S WCI  -3
MOSINEE        PTCLDY    10   7  85 NW10      29.79R WCI  -3
MARSHFIELD     CLOUDY     9   2  73 NW17      29.79S HAZE    WCI  -9
WISC RAPIDS    PTCLDY    10   2  69 NW13      29.82S WCI  -5
STEVENS POINT  FLURRIES   9   4  78 W6        29.79S WCI  -1
WAUPACA        PTCLDY    16  10  74 NW10G16   29.78S WCI   4
SHAWANO        FLURRIES  17  11  75 NW5       29.77S
CLINTONVILLE   FLURRIES  16  10  79 NW9       29.77S WCI   4
WAUTOMA        CLOUDY    13   8  80 NW14      29.80S HAZE    WCI  -2
$$

WIZ038-039-048-051-090800-
FOX VALLEY

CITY           SKY/WX    TMP DP  RH WIND       PRES   REMARKS
NWS GREEN BAY  LGT SNOW  17  10  74 NW12      29.75S WCI   4
APPLETON       PTCLDY    16   9  73 W10       29.73S WCI   3
OSHKOSH        LGT SNOW  16  10  77 NW15      29.75S WCI   1
FOND DU LAC    FLURRIES  18  12  77 N16       29.75S WCI   3
$$

WIZ022-050-052-090800-
EAST CENTRAL WISCONSIN

CITY           SKY/WX    TMP DP  RH WIND       PRES   REMARKS
EPHRAIM        FAIR      16   8  72 N12G23    29.70F WCI   3
STURGEON BAY   MOCLDY    16   7  67 N14       29.74F WCI   1
MANITOWOC      FLURRIES  17  11  77 N14       29.74S WCI   3
SHEBOYGAN      LGT SNOW  19  14  81 N7        29.72S WCI  10
$$

LMZ563-521-522-541>543-090800-
LAKESHORE

STATION/POSITION TIME  TEMP    WIND        PRES    VSBY  WAVE
                       AIR SEA DIR/SP/G                  HT/PER
                 (UTC) (F)     (DEG/KT/KT) (MB)    (MI)  (FT/S)
SHEBOYGAN LKSHOR 0700   19     330/ 13/ 15 1007.8F
KEWAUNEE LKSHORE 0600   18     350/ 11/ 14 1006.5S
ALGOMA MARINA    0641          340/ 11/ 15   N/A
NORTHPORT PIER   0604   18     330/ 18     1006.8F
CHAMBERS ISLAND  0600   17     320/ 17/ 21 1007.5S
MENOMINEE LKSHOR 0600   17     330/ 13     1006.5F
$$




USA.gov is the U.S. government's official web portal to all federal, state and local government web resources and services.